TimeCST,TemperatureF,Dew PointF,Humidity,Sea Level PressureIn,VisibilityMPH,Wind Direction,Wind SpeedMPH,Gust SpeedMPH,PrecipitationIn,Events,Conditions,WindDirDegrees,DateUTC
12:13 AM,12.2,8.6,85,30.08,10.0,NW,13.8,-,N/A,,Overcast,320,2013-02-03 06:13:00
12:33 AM,12.2,8.6,85,30.09,7.0,NW,25.3,29.9,N/A,Snow,Light Snow,320,2013-02-03 06:33:00
12:53 AM,12.2,6.8,79,30.10,10.0,NW,18.4,-,N/A,,Scattered Clouds,320,2013-02-03 06:53:00
1:13 AM,10.4,6.8,85,30.11,10.0,NW,20.7,-,N/A,,Clear,320,2013-02-03 07:13:00
1:33 AM,10.4,5.0,79,30.10,10.0,NW,16.1,-,N/A,,Clear,320,2013-02-03 07:33:00
1:53 AM,8.6,3.2,79,30.09,10.0,NW,12.7,-,N/A,,Clear,310,2013-02-03 07:53:00
2:13 AM,6.8,3.2,85,30.10,10.0,West,11.5,-,N/A,,Clear,280,2013-02-03 08:13:00
2:33 AM,8.6,3.2,79,30.10,10.0,WNW,12.7,-,N/A,,Scattered Clouds,300,2013-02-03 08:33:00
2:53 AM,8.6,3.2,79,30.11,10.0,NW,13.8,-,N/A,,Scattered Clouds,310,2013-02-03 08:53:00
3:14 AM,8.6,3.2,79,30.11,10.0,NW,11.5,17.3,N/A,,Overcast,320,2013-02-03 09:14:00
3:53 AM,8.6,1.4,73,30.10,10.0,WNW,4.6,-,N/A,,Mostly Cloudy,290,2013-02-03 09:53:00
4:13 AM,8.6,3.2,79,30.09,10.0,WNW,3.5,-,N/A,,Overcast,290,2013-02-03 10:13:00
4:33 AM,6.8,3.2,85,30.09,10.0,West,4.6,-,N/A,,Mostly Cloudy,270,2013-02-03 10:33:00
4:53 AM,6.8,1.4,79,30.10,10.0,West,6.9,-,N/A,,Scattered Clouds,270,2013-02-03 10:53:00
5:13 AM,6.8,1.4,79,30.08,10.0,WSW,3.5,-,N/A,,Clear,240,2013-02-03 11:13:00
5:33 AM,8.6,3.2,79,30.07,10.0,WSW,4.6,-,N/A,,Mostly Cloudy,240,2013-02-03 11:33:00
5:53 AM,8.6,5.0,85,30.07,10.0,WSW,4.6,-,N/A,,Overcast,240,2013-02-03 11:53:00
6:13 AM,10.4,5.0,79,30.08,10.0,WSW,3.5,-,N/A,,Overcast,250,2013-02-03 12:13:00
6:33 AM,10.4,6.8,85,30.07,10.0,West,4.6,-,N/A,,Overcast,270,2013-02-03 12:33:00
6:53 AM,10.4,6.8,85,30.07,10.0,Calm,Calm,-,N/A,,Overcast,0,2013-02-03 12:53:00
7:13 AM,10.4,6.8,85,30.08,10.0,West,5.8,-,N/A,,Overcast,260,2013-02-03 13:13:00
7:33 AM,10.4,6.8,85,30.07,10.0,West,3.5,-,N/A,,Overcast,260,2013-02-03 13:33:00
7:53 AM,12.2,6.8,79,30.07,10.0,Calm,Calm,-,N/A,,Overcast,0,2013-02-03 13:53:00
8:13 AM,12.2,6.8,79,30.07,10.0,Calm,Calm,-,N/A,,Overcast,0,2013-02-03 14:13:00
8:33 AM,12.2,8.6,85,30.07,10.0,Calm,Calm,-,N/A,Snow,Light Snow,0,2013-02-03 14:33:00
8:53 AM,12.2,8.6,85,30.07,7.0,NNW,4.6,-,N/A,Snow,Light Snow,330,2013-02-03 14:53:00
9:13 AM,14.0,8.6,79,30.07,7.0,NNW,3.5,-,N/A,Snow,Light Snow,340,2013-02-03 15:13:00
9:33 AM,14.0,8.6,79,30.07,3.0,Calm,Calm,-,N/A,Snow,Light Snow,0,2013-02-03 15:33:00
9:54 AM,14.0,8.6,79,30.08,7.0,Calm,Calm,-,N/A,Snow,Light Snow,0,2013-02-03 15:54:00
10:14 AM,14.0,8.6,79,30.08,5.0,Calm,Calm,-,N/A,Snow,Light Snow,0,2013-02-03 16:14:00
10:33 AM,14.0,8.6,79,30.07,5.0,Calm,Calm,-,N/A,Snow,Light Snow,0,2013-02-03 16:33:00
10:53 AM,14.0,6.8,73,30.06,10.0,Calm,Calm,-,N/A,,Overcast,0,2013-02-03 16:53:00
11:13 AM,14.0,6.8,73,30.06,10.0,Calm,Calm,-,N/A,,Overcast,0,2013-02-03 17:13:00
11:33 AM,15.8,6.8,68,30.06,10.0,Calm,Calm,-,N/A,,Overcast,0,2013-02-03 17:33:00
11:54 AM,15.8,6.8,68,30.04,10.0,Calm,Calm,-,N/A,,Overcast,0,2013-02-03 17:54:00
12:13 PM,15.8,6.8,68,30.03,10.0,Calm,Calm,-,N/A,,Overcast,0,2013-02-03 18:13:00
12:33 PM,15.8,8.6,73,30.02,10.0,East,3.5,-,N/A,,Overcast,90,2013-02-03 18:33:00
12:53 PM,15.8,8.6,73,30.00,10.0,East,4.6,-,N/A,,Overcast,90,2013-02-03 18:53:00
1:13 PM,15.8,8.6,73,30.00,10.0,East,5.8,-,N/A,,Overcast,80,2013-02-03 19:13:00
1:34 PM,15.8,8.6,73,29.99,10.0,East,3.5,-,N/A,,Overcast,80,2013-02-03 19:34:00
1:54 PM,15.8,6.8,68,29.98,10.0,ESE,3.5,-,N/A,,Overcast,110,2013-02-03 19:54:00
2:13 PM,15.8,8.6,73,29.98,10.0,East,4.6,-,N/A,,Mostly Cloudy,90,2013-02-03 20:13:00
2:53 PM,15.8,8.6,73,29.96,10.0,East,4.6,-,N/A,,Scattered Clouds,90,2013-02-03 20:53:00
3:13 PM,15.8,8.6,73,29.95,10.0,ESE,4.6,-,N/A,,Clear,110,2013-02-03 21:13:00
3:34 PM,15.8,8.6,73,29.96,10.0,East,5.8,-,N/A,,Clear,80,2013-02-03 21:34:00
3:54 PM,15.8,8.6,73,29.96,10.0,East,4.6,-,N/A,,Scattered Clouds,80,2013-02-03 21:54:00
4:13 PM,15.8,8.6,73,29.95,2.5,East,4.6,-,N/A,Snow,Light Snow,90,2013-02-03 22:13:00
4:53 PM,14.0,10.4,86,29.94,3.0,East,5.8,-,N/A,Snow,Light Snow,90,2013-02-03 22:53:00
5:13 PM,14.0,10.4,86,29.94,5.0,ESE,5.8,-,N/A,Snow,Light Snow,110,2013-02-03 23:13:00
5:34 PM,14.0,10.4,86,29.94,5.0,ESE,6.9,-,N/A,Snow,Light Snow,110,2013-02-03 23:34:00
5:53 PM,14.0,10.4,86,29.95,2.5,East,5.8,-,N/A,Snow,Light Snow,90,2013-02-03 23:53:00
6:13 PM,12.2,10.4,92,29.95,3.0,East,5.8,-,N/A,Snow,Light Snow,90,2013-02-04 00:13:00
6:33 PM,12.2,10.4,92,29.95,4.0,East,6.9,-,N/A,Snow,Light Snow,80,2013-02-04 00:33:00
6:53 PM,12.2,10.4,92,29.95,5.0,ENE,6.9,-,N/A,Snow,Light Snow,60,2013-02-04 00:53:00
7:14 PM,12.2,8.6,85,29.92,10.0,East,9.2,-,N/A,Snow,Light Snow,80,2013-02-04 01:14:00
7:33 PM,12.2,8.6,85,29.95,10.0,NE,6.9,-,N/A,Snow,Light Snow,50,2013-02-04 01:33:00
7:53 PM,12.2,8.6,85,29.95,7.0,NE,5.8,-,N/A,Snow,Light Snow,50,2013-02-04 01:53:00
8:13 PM,12.2,10.4,92,29.96,7.0,NNE,9.2,-,N/A,Snow,Light Snow,30,2013-02-04 02:13:00
8:33 PM,12.2,10.4,92,29.96,5.0,NNE,6.9,-,N/A,Snow,Light Snow,30,2013-02-04 02:33:00
8:53 PM,12.2,8.6,85,29.96,4.0,NNE,8.1,-,N/A,Snow,Light Snow,30,2013-02-04 02:53:00
9:14 PM,12.2,8.6,85,29.95,4.0,NE,8.1,-,N/A,Snow,Light Snow,40,2013-02-04 03:14:00
9:34 PM,12.2,8.6,85,29.96,5.0,NE,8.1,-,N/A,Snow,Light Snow,40,2013-02-04 03:34:00
9:53 PM,12.2,8.6,85,29.95,7.0,NE,8.1,-,N/A,Snow,Light Snow,40,2013-02-04 03:53:00
10:13 PM,12.2,8.6,85,29.96,5.0,NNE,8.1,-,N/A,Snow,Light Snow,30,2013-02-04 04:13:00
10:33 PM,12.2,8.6,85,29.97,5.0,NNE,8.1,-,N/A,Snow,Light Snow,30,2013-02-04 04:33:00
10:53 PM,12.2,8.6,85,29.96,10.0,NE,8.1,-,N/A,Snow,Light Snow,40,2013-02-04 04:53:00
11:13 PM,12.2,8.6,85,29.98,10.0,NNE,6.9,-,N/A,Snow,Light Snow,30,2013-02-04 05:13:00
11:33 PM,12.2,8.6,85,29.97,10.0,NE,6.9,-,N/A,Snow,Light Snow,40,2013-02-04 05:33:00
11:53 PM,12.2,8.6,85,29.98,7.0,North,6.9,-,N/A,Snow,Light Snow,10,2013-02-04 05:53:00